sat.trackr.live / text

‹ back to catalog

HORIZONS-3E

NORAD 43633 · 2018-074B

PAYLOAD ACTIVE UNKNOWN

§ Identity

Operator
Country
ITSO
Launch date
2018-09-25
Launch site
FRGUI
Launch vehicle
Mass (kg)
RCS (m²)

Purposes: comms

External: N2YO · Heavens-Above · Gunter

§ Orbital elements

Epoch: 2026-05-25T02:50:05.542080Z

Period
1,436.14 min
Inclination
0.0049°
Eccentricity
0.0000776
Mean motion
1.00269046 rev/d
Perigee alt
35,784.1 km
Apogee alt
35,790.6 km
Semi-major
42,165.5 km
B*
0.0000e+0
RAAN
68.4194°
Arg perigee
228.0182°
Mean anomaly
157.7772°
Rev number
2,811

§ Raw data

HORIZONS-3E1 43633U 18074B   26145.11811970 -.00000034  00000+0  00000+0 0  99912 43633   0.0049  68.4194 0000776 228.0182 157.7772  1.00269046 28115

JSON: /api/v1/satellites/43633 · /tle

For live sub-satellite position, see the globe view (requires WebGL).

§ Visibility from observer

Set your observer location to see the next 7 days of passes ≥ 10°. The values pass through the URL so the page stays shareable.

No JS? Fill the form by hand. The geolocation button needs JavaScript.